K5UTC Weather Reports


time (UTC)temp
C
wind
direction
speed
KPH
gust
KPH
rain 1hr
cm
rain 24hr
cm
rain mn
cm
humidity
%
barometer
mb
20260906134803 27 146 0.0 0.0 0.00 0.69 0.69 85 1012.6
20260906134258 27 158 1.6 1.6 0.00 0.69 0.69 84 1012.7
20260906133754 27 154 0.0 0.0 0.00 0.69 0.69 85 1012.7
20260906133249 26 138 1.6 1.6 0.00 0.69 0.69 84 1012.8
20260906132744 26 89 1.6 1.6 0.00 0.69 0.69 84 1012.7
20260906132239 25 117 0.0 1.6 0.00 0.69 0.69 89 1012.7
20260906131735 25 129 0.0 1.6 0.00 0.69 0.69 90 1012.7
20260906131230 25 163 1.6 1.6 0.00 0.69 0.69 88 1013.0
20260906130726 25 137 0.0 0.0 0.00 0.69 0.69 90 1012.8
20260906130220 24 146 0.0 1.6 0.00 0.69 0.69 93 1012.8
20260906125719 23 112 0.0 1.6 0.00 0.69 0.69 96 1012.9
20260906125217 24 152 0.0 1.6 0.00 0.69 0.69 97 1012.8
20260906124712 23 132 0.0 0.0 0.00 0.69 0.69 98 1012.9
20260906124208 23 131 0.0 0.0 0.00 0.69 0.69 98 1013.2
20260906123707 23 130 0.0 1.6 0.00 0.69 0.69 98 1013.3
20260906123202 23 150 0.0 0.0 0.00 0.69 0.69 98 1012.9
20260906122701 23 149 0.0 0.0 0.00 0.69 0.69 98 1013.3
20260906122157 22 149 0.0 0.0 0.00 0.69 0.69 98 1012.9
20260906121653 22 145 0.0 0.0 0.00 0.69 0.69 98 1013.0
20260906121149 22 149 0.0 0.0 0.00 0.69 0.69 98 1013.0
20260906120645 22 151 0.0 0.0 0.00 0.69 0.69 98 1013.0
20260906120142 22 152 0.0 0.0 0.00 0.69 0.69 98 1012.7
20260906115642 21 154 0.0 0.0 0.00 0.69 0.69 98 1012.5
20260906115138 21 137 0.0 0.0 0.00 0.69 0.69 98 1012.4
20260906114636 22 134 0.0 0.0 0.00 0.69 0.69 98 1012.3
20260906114132 21 154 0.0 0.0 0.00 0.69 0.69 98 1012.3
20260906113631 21 146 0.0 0.0 0.00 0.69 0.69 98 1012.4
20260906113126 21 146 0.0 0.0 0.00 0.69 0.69 98 1012.4
20260906112626 21 140 0.0 0.0 0.00 0.69 0.69 98 1012.4
20260906112123 21 133 0.0 0.0 0.00 0.69 0.69 98 1012.2
20260906111622 21 161 0.0 0.0 0.00 0.69 0.69 98 1012.3
20260906111117 21 142 0.0 0.0 0.00 0.69 0.69 98 1012.5
20260906110612 21 141 0.0 0.0 0.00 0.69 0.69 98 1012.4
20260906110112 22 157 0.0 0.0 0.00 0.69 0.69 98 1012.4
20260906105606 22 157 0.0 0.0 0.00 0.69 0.69 98 1012.4
20260906105103 22 146 0.0 0.0 0.00 0.69 0.69 98 1012.3
20260906104601 22 150 0.0 0.0 0.00 0.69 0.69 98 1012.1
20260906104055 22 157 0.0 0.0 0.00 0.69 0.69 98 1012.2
20260906103554 22 142 0.0 0.0 0.00 0.69 0.69 98 1012.1
20260906103050 22 153 0.0 0.0 0.00 0.69 0.69 98 1012.3
20260906102549 22 152 0.0 0.0 0.00 0.69 0.69 98 1012.4
20260906102044 22 148 0.0 0.0 0.00 0.69 0.69 98 1012.5
20260906101539 22 149 0.0 0.0 0.00 0.69 0.69 98 1012.6
20260906101034 22 155 0.0 0.0 0.00 0.69 0.69 98 1012.5
20260906100530 22 155 0.0 0.0 0.00 0.69 0.69 98 1012.2
20260906100029 22 155 0.0 0.0 0.00 0.69 0.69 98 1012.5
20260906095524 22 155 0.0 0.0 0.00 0.69 0.69 98 1012.3
20260906095020 22 140 0.0 0.0 0.00 0.69 0.69 98 1012.3
20260906094518 22 140 0.0 0.0 0.00 0.69 0.69 98 1012.3
20260906094014 22 153 0.0 0.0 0.00 0.69 0.69 98 1012.0
20260906093510 22 148 1.6 1.6 0.00 0.69 0.69 98 1012.0
20260906093010 22 159 0.0 0.0 0.00 0.69 0.69 98 1011.8
20260906092505 22 152 0.0 0.0 0.00 0.69 0.69 98 1011.6
20260906092000 22 152 0.0 0.0 0.00 0.69 0.69 98 1011.7
20260906091456 22 154 0.0 0.0 0.00 0.69 0.69 98 1011.7
20260906090953 22 142 0.0 0.0 0.00 0.69 0.69 98 1011.7
20260906090448 22 142 0.0 0.0 0.00 0.69 0.69 98 1011.5
20260906085947 22 146 0.0 0.0 0.00 0.69 0.69 97 1011.6
20260906085446 22 138 0.0 0.0 0.00 0.69 0.69 97 1012.0
20260906084946 22 139 0.0 0.0 0.00 0.69 0.69 98 1011.6
20260906084441 22 42 0.0 1.6 0.00 0.69 0.69 98 1011.6
20260906083940 22 143 0.0 0.0 0.00 0.69 0.69 98 1011.4
20260906083436 22 129 0.0 1.6 0.00 0.69 0.69 98 1011.4
20260906082935 22 185 1.6 1.6 0.00 0.69 0.69 98 1011.5
20260906082430 22 134 0.0 0.0 0.00 0.69 0.69 97 1011.7
20260906081926 22 163 0.0 0.0 0.00 0.69 0.69 97 1011.9
20260906081421 22 154 0.0 0.0 0.13 0.69 0.69 97 1012.0
20260906080917 22 143 1.6 1.6 0.30 0.69 0.69 97 1012.1
20260906080414 22 138 0.0 0.0 0.18 0.66 0.66 97 1012.1
20260906075913 22 24 3.2 3.2 0.00 0.64 0.64 97 1012.2
20260906075408 22 241 1.6 3.2 0.00 0.64 0.64 97 1012.1
20260906074903 22 153 0.0 0.0 0.13 0.64 0.64 97 1011.8
20260906074403 22 165 0.0 0.0 0.13 0.64 0.64 97 1012.2
20260906073901 22 149 0.0 0.0 0.00 0.61 0.61 96 1012.7
20260906073356 22 155 1.6 1.6 0.18 0.61 0.61 96 1013.2
20260906072853 22 176 1.6 1.6 0.18 0.61 0.61 95 1013.4
20260906072348 22 29 3.2 3.2 0.13 0.58 0.58 95 1013.2
20260906071844 22 153 1.6 1.6 1.37 0.58 0.58 95 1013.5
20260906071339 22 136 1.6 1.6 1.68 0.56 0.56 95 1013.6
20260906070835 23 90 1.6 1.6 1.07 0.43 0.43 94 1014.1
20260906070331 23 169 1.6 1.6 1.27 0.28 0.28 92 1014.2
20260906065827 23 129 6.4 9.7 1.50 0.25 0.25 92 1014.8
20260906065321 23 87 6.4 9.7 0.43 0.08 0.08 92 1014.8
20260906064817 25 50 4.8 6.4 0.00 0.00 0.00 91 1014.6
20260906064313 25 68 3.2 9.7 0.00 0.00 0.00 86 1014.7
20260906063812 26 83 4.8 9.7 0.00 0.00 0.00 83 1013.9
20260906063308 26 131 3.2 4.8 0.00 0.00 0.00 83 1013.4
20260906062803 25 305 1.6 3.2 0.00 0.00 0.00 85 1013.2
20260906062305 25 89 1.6 3.2 0.00 0.00 0.00 86 1012.5
20260906061758 26 133 0.0 0.0 0.00 0.00 0.00 83 1012.5
20260906061254 26 147 3.2 3.2 0.00 0.00 0.00 83 1012.5
20260906060749 26 139 3.2 3.2 0.00 0.00 0.00 83 1012.5
20260906060247 26 60 3.2 4.8 0.00 0.00 0.00 85 1012.3
20260906055742 26 51 6.4 6.4 0.00 0.00 0.00 87 1012.4
20260906055237 26 139 1.6 1.6 0.00 0.00 0.00 87 1012.4
20260906054732 26 113 3.2 3.2 0.00 0.00 0.00 88 1012.8
20260906054227 26 2 4.8 6.4 0.00 0.00 0.00 88 1012.8
20260906053724 26 68 1.6 1.6 0.00 0.00 0.00 90 1012.7
20260906053219 26 44 4.8 4.8 0.00 0.00 0.00 90 1012.6
20260906052714 26 141 3.2 4.8 0.00 0.00 0.00 91 1012.8
20260906052211 25 39 4.8 6.4 0.00 0.00 0.00 92 1012.7
20260906051708 25 135 3.2 4.8 0.00 0.00 0.00 93 1012.7
20260906051207 24 53 6.4 11.3 0.00 0.00 0.00 96 1012.6
20260906050702 23 56 9.7 14.5 0.00 0.00 0.00 97 1012.2
20260906050157 23 129 0.0 0.0 0.00 0.00 0.00 97 1011.5
20260906045655 23 132 0.0 0.0 0.00 0.15 0.15 97 1011.6
20260906045151 23 132 0.0 0.0 0.00 0.15 0.15 97 1011.5
20260906044647 23 132 0.0 0.0 0.00 0.15 0.15 97 1011.7
20260906044142 23 132 0.0 0.0 0.00 0.15 0.15 97 1011.7
20260906043638 23 132 0.0 0.0 0.00 0.15 0.15 97 1011.8
20260906043133 23 132 0.0 0.0 0.00 0.15 0.15 97 1012.0
20260906042633 23 132 0.0 0.0 0.00 0.15 0.15 97 1012.1
20260906042127 23 132 0.0 0.0 0.00 0.15 0.15 97 1012.0
20260906041624 23 132 0.0 0.0 0.00 0.15 0.15 97 1012.1
20260906041123 23 132 0.0 0.0 0.00 0.15 0.15 97 1012.1
20260906040619 23 132 0.0 0.0 0.00 0.15 0.15 97 1012.3
20260906040115 23 133 0.0 0.0 0.00 0.15 0.15 97 1012.1
20260906035610 23 144 0.0 0.0 0.00 0.15 0.15 97 1012.2
20260906035106 23 157 0.0 0.0 0.00 0.15 0.15 97 1012.2
20260906034605 23 139 0.0 0.0 0.00 0.15 0.15 97 1012.3
20260906034100 23 131 0.0 0.0 0.00 0.15 0.15 97 1012.3
20260906033556 23 131 0.0 0.0 0.00 0.15 0.15 97 1012.3
20260906033051 23 131 0.0 0.0 0.00 0.15 0.15 97 1012.3
20260906032548 23 131 0.0 0.0 0.00 0.15 0.15 97 1012.4
20260906032047 23 131 0.0 0.0 0.00 0.15 0.15 97 1012.4
20260906031543 23 130 0.0 0.0 0.00 0.15 0.15 97 1012.1
20260906031039 23 130 0.0 0.0 0.00 0.15 0.15 97 1012.0
20260906030538 23 130 0.0 0.0 0.00 0.15 0.15 97 1012.1
20260906030038 23 130 0.0 0.0 0.00 0.15 0.15 97 1011.9
20260906025537 23 130 0.0 0.0 0.00 0.15 0.15 96 1012.0
20260906025036 23 130 0.0 0.0 0.00 0.15 0.15 96 1012.2
20260906024531 23 130 0.0 0.0 0.00 0.15 0.15 96 1012.0
20260906024031 24 130 0.0 0.0 0.00 0.15 0.15 96 1011.9
20260906023528 24 130 0.0 0.0 0.00 0.15 0.15 96 1011.8
20260906023022 24 142 0.0 0.0 0.00 0.15 0.15 96 1011.8
20260906022518 24 129 0.0 0.0 0.00 0.15 0.15 96 1011.6
20260906022013 24 128 0.0 0.0 0.00 0.15 0.15 96 1011.5
20260906021508 24 146 0.0 0.0 0.00 0.15 0.15 96 1011.5
20260906021003 24 144 0.0 0.0 0.00 0.15 0.15 96 1011.5
20260906020501 24 147 0.0 0.0 0.00 0.15 0.15 96 1011.4
20260906020001 24 115 1.6 3.2 0.00 0.15 0.15 96 1011.5
20260906015500 24 140 0.0 0.0 0.00 0.15 0.15 96 1011.5
20260906015000 24 150 0.0 0.0 0.00 0.15 0.15 96 1011.3
20260906014455 24 152 0.0 0.0 0.00 0.15 0.15 96 1011.5
20260906013951 24 152 0.0 0.0 0.00 0.15 0.15 95 1011.2
20260906013447 25 152 0.0 0.0 0.00 0.15 0.15 95 1011.2
20260906012943 25 152 0.0 0.0 0.00 0.15 0.15 95 1011.4
20260906012443 25 143 0.0 0.0 0.00 0.15 0.15 94 1011.4
20260906011942 25 143 0.0 0.0 0.00 0.15 0.15 93 1011.3
20260906011438 25 124 0.0 1.6 0.00 0.15 0.15 93 1011.4
20260906010932 25 185 0.0 0.0 0.00 0.15 0.15 93 1011.1
20260906010428 25 117 0.0 1.6 0.00 0.15 0.15 95 1011.1
20260906005924 25 140 0.0 0.0 0.00 0.15 0.15 95 1011.2
20260906005424 25 120 0.0 1.6 0.00 0.15 0.15 95 1011.0
20260906004922 25 117 0.0 0.0 0.00 0.15 0.15 95 1011.3
20260906004416 25 149 0.0 0.0 0.00 0.15 0.15 95 1011.2
20260906003912 25 145 0.0 0.0 0.00 0.15 0.15 95 1011.0
20260906003407 25 143 0.0 0.0 0.00 0.15 0.15 95 1011.0
20260906002903 25 130 0.0 0.0 0.00 0.15 0.15 95 1011.0
20260906002402 25 134 0.0 0.0 0.00 0.15 0.15 95 1010.7
20260906001857 25 130 0.0 0.0 0.00 0.15 0.15 94 1010.9
20260906001353 25 150 0.0 0.0 0.00 0.15 0.15 94 1010.8
20260906000848 26 157 0.0 0.0 0.00 0.15 0.15 93 1010.6
20260906000348 26 128 0.0 1.6 0.00 0.15 0.15 93 1010.6
20260905235843 26 185 1.6 3.2 0.00 0.15 0.15 92 1010.7
20260905235343 26 160 0.0 0.0 0.00 0.15 0.15 91 1010.6
20260905234838 26 140 0.0 0.0 0.00 0.15 0.15 89 1010.7
20260905234333 26 116 1.6 1.6 0.00 0.15 0.15 88 1010.8
20260905233829 26 78 3.2 3.2 0.00 0.15 0.15 87 1010.9
20260905233323 26 126 6.4 9.7 0.00 0.15 0.15 88 1011.2
20260905232822 26 90 1.6 3.2 0.00 0.15 0.15 88 1011.2
20260905232319 26 148 1.6 1.6 0.00 0.15 0.15 88 1011.4
20260905231814 26 78 1.6 3.2 0.00 0.15 0.15 90 1011.4
20260905231309 26 54 3.2 4.8 0.00 0.15 0.15 90 1011.7
20260905230806 26 101 4.8 6.4 0.18 0.15 0.15 89 1012.0
20260905230304 26 57 3.2 6.4 0.30 0.15 0.15 87 1011.7
20260905225803 26 313 4.8 9.7 0.30 0.15 0.15 86 1011.6
20260905225258 27 147 1.6 3.2 0.61 0.13 0.13 82 1011.3
20260905224758 27 181 1.6 1.6 0.48 0.08 0.08 81 1011.3
20260905224253 30 332 8.0 14.5 0.18 0.03 0.03 78 1011.0
20260905223749 32 129 3.2 4.8 0.00 0.00 0.00 63 1010.7
20260905223246 32 68 4.8 6.4 0.00 0.00 0.00 60 1010.8
20260905222741 36 310 9.7 14.5 0.00 0.00 0.00 53 1011.0
20260905222240 37 147 0.0 0.0 0.00 0.00 0.00 51 1010.2
20260905221736 37 310 1.6 3.2 0.00 0.00 0.00 51 1010.4
20260905221233 37 129 0.0 0.0 0.00 0.00 0.00 58 1010.4
20260905220728 37 156 0.0 0.0 0.00 0.00 0.00 52 1010.1
20260905220224 38 171 1.6 1.6 0.00 0.00 0.00 50 1010.1
20260905215724 40 166 0.0 1.6 0.00 0.00 0.00 45 1010.3
20260905215220 39 163 0.0 0.0 0.00 0.00 0.00 43 1010.3
20260905214715 39 170 1.6 1.6 0.00 0.00 0.00 48 1010.5
20260905214210 40 193 1.6 1.6 0.00 0.00 0.00 44 1010.6
20260905213706 40 123 1.6 1.6 0.00 0.00 0.00 44 1010.4
20260905213202 40 183 1.6 1.6 0.00 0.00 0.00 43 1010.5
20260905212657 40 165 0.0 0.0 0.00 0.00 0.00 44 1010.5
20260905212156 39 162 0.0 0.0 0.00 0.00 0.00 50 1010.6
20260905211650 38 166 0.0 0.0 0.00 0.00 0.00 47 1010.5
20260905211146 38 135 0.0 1.6 0.00 0.00 0.00 47 1010.6
20260905210643 38 149 0.0 0.0 0.00 0.00 0.00 47 1010.6
20260905210142 37 165 1.6 1.6 0.00 0.00 0.00 50 1010.6
20260905205642 38 157 1.6 1.6 0.00 0.00 0.00 48 1010.5
20260905205141 38 58 3.2 3.2 0.00 0.00 0.00 47 1010.6
20260905204641 37 70 1.6 3.2 0.00 0.00 0.00 48 1010.8
20260905204136 37 142 3.2 3.2 0.00 0.00 0.00 50 1010.7
20260905203637 38 203 3.2 3.2 0.00 0.00 0.00 44 1010.6
20260905203132 38 45 1.6 1.6 0.00 0.00 0.00 47 1010.8
20260905202628 39 96 1.6 1.6 0.00 0.00 0.00 45 1010.8
20260905202123 38 161 0.0 0.0 0.00 0.00 0.00 47 1011.1
20260905201618 40 120 3.2 3.2 0.00 0.00 0.00 46 1011.1
20260905201118 40 120 0.0 1.6 0.00 0.00 0.00 45 1011.1
20260905200614 40 97 1.6 1.6 0.00 0.00 0.00 46 1011.0
20260905200109 39 208 0.0 1.6 0.00 0.00 0.00 47 1011.3
20260905195607 39 188 0.0 1.6 0.00 0.00 0.00 44 1011.3
20260905195103 38 37 3.2 3.2 0.00 0.00 0.00 47 1011.5
20260905194603 38 237 0.0 0.0 0.00 0.00 0.00 47 1011.6
20260905194102 38 96 0.0 1.6 0.00 0.00 0.00 45 1011.6
20260905193557 38 263 4.8 6.4 0.00 0.00 0.00 43 1011.7
20260905193052 38 170 0.0 1.6 0.00 0.00 0.00 46 1011.5
20260905192547 38 160 0.0 1.6 0.00 0.00 0.00 43 1011.6
20260905192044 38 122 3.2 4.8 0.00 0.00 0.00 47 1011.7
20260905191542 38 342 6.4 6.4 0.00 0.00 0.00 47 1011.7
20260905191042 39 198 1.6 3.2 0.00 0.00 0.00 41 1011.9
20260905190540 39 77 1.6 3.2 0.00 0.00 0.00 43 1011.9
20260905190040 39 158 1.6 1.6 0.00 0.00 0.00 44 1012.0
20260905185539 38 153 0.0 0.0 0.00 0.00 0.00 47 1012.1
20260905185038 38 159 1.6 1.6 0.00 0.00 0.00 46 1012.2
20260905184539 38 168 0.0 0.0 0.00 0.00 0.00 44 1012.3
20260905184038 38 64 6.4 6.4 0.00 0.00 0.00 45 1012.3
20260905183538 38 145 1.6 1.6 0.00 0.00 0.00 48 1012.6
20260905183033 38 258 6.4 14.5 0.00 0.00 0.00 45 1012.6
20260905182533 38 180 0.0 0.0 0.00 0.00 0.00 50 1012.6
20260905182032 38 92 0.0 1.6 0.00 0.00 0.00 48 1012.7
20260905181527 37 163 0.0 0.0 0.00 0.00 0.00 46 1012.9
20260905181026 37 88 3.2 3.2 0.00 0.00 0.00 46 1012.7
20260905180521 38 117 3.2 6.4 0.00 0.00 0.00 46 1012.7
20260905180017 37 213 6.4 6.4 0.00 0.00 0.00 47 1012.8
20260905175516 37 285 3.2 4.8 0.00 0.00 0.00 47 1012.9
20260905175012 37 191 3.2 4.8 0.00 0.00 0.00 46 1013.0
20260905174507 37 156 0.0 1.6 0.00 0.00 0.00 46 1012.9
20260905174003 37 143 1.6 1.6 0.00 0.00 0.00 49 1013.0
20260905173459 37 177 3.2 4.8 0.00 0.00 0.00 49 1012.9
20260905172954 37 46 3.2 4.8 0.00 0.00 0.00 52 1013.0
20260905172452 37 220 3.2 3.2 0.00 0.00 0.00 49 1013.2
20260905171948 37 134 1.6 1.6 0.00 0.00 0.00 49 1013.2
20260905171444 37 216 1.6 1.6 0.00 0.00 0.00 49 1013.2
20260905170940 37 172 1.6 1.6 0.00 0.00 0.00 54 1013.0
20260905170436 37 357 1.6 1.6 0.00 0.00 0.00 51 1013.3
20260905165936 37 312 3.2 3.2 0.00 0.00 0.00 51 1013.3
20260905165431 37 189 3.2 3.2 0.00 0.00 0.00 54 1013.3
20260905164926 36 234 1.6 1.6 0.00 0.00 0.00 53 1013.5
20260905164426 37 325 3.2 3.2 0.00 0.00 0.00 54 1013.7
20260905163921 36 191 0.0 1.6 0.00 0.00 0.00 56 1013.7
20260905163418 36 124 0.0 0.0 0.00 0.00 0.00 53 1013.8
20260905162913 36 302 3.2 4.8 0.00 0.00 0.00 55 1014.1
20260905162408 36 263 3.2 3.2 0.00 0.00 0.00 52 1013.9
20260905161903 37 114 3.2 3.2 0.00 0.00 0.00 53 1014.1
20260905161402 36 216 1.6 3.2 0.00 0.00 0.00 60 1014.1
20260905160900 37 153 0.0 0.0 0.00 0.00 0.00 55 1014.2
20260905160355 36 147 1.6 1.6 0.00 0.00 0.00 56 1014.1
20260905155855 36 188 3.2 3.2 0.00 0.00 0.00 59 1014.2
20260905155354 36 194 0.0 0.0 0.00 0.00 0.00 60 1014.2
20260905154853 36 144 1.6 3.2 0.00 0.00 0.00 57 1014.2
20260905154349 35 36 3.2 3.2 0.00 0.00 0.00 59 1014.2
20260905153844 36 70 3.2 3.2 0.00 0.00 0.00 55 1014.2
20260905153341 36 172 1.6 1.6 0.00 0.00 0.00 58 1014.4
20260905152840 35 84 3.2 3.2 0.00 0.00 0.00 58 1014.2
20260905152340 35 102 3.2 4.8 0.00 0.00 0.00 56 1014.3
20260905151835 35 144 0.0 0.0 0.00 0.00 0.00 59 1014.3
20260905151331 35 67 1.6 1.6 0.00 0.00 0.00 59 1014.3
20260905150830 35 200 1.6 3.2 0.00 0.00 0.00 58 1014.0
20260905150325 35 138 1.6 1.6 0.00 0.00 0.00 59 1014.2
20260905145823 34 93 1.6 1.6 0.00 0.00 0.00 62 1014.2
20260905145322 35 256 1.6 1.6 0.00 0.00 0.00 62 1014.2
20260905144821 35 146 0.0 1.6 0.00 0.00 0.00 64 1014.4
20260905144317 34 129 0.0 0.0 0.00 0.00 0.00 66 1014.5
20260905143816 33 140 0.0 0.0 0.00 0.00 0.00 66 1014.2
20260905143310 33 142 1.6 1.6 0.00 0.00 0.00 67 1014.4
20260905142809 33 155 1.6 1.6 0.00 0.00 0.00 71 1014.5
20260905142305 33 141 0.0 0.0 0.00 0.00 0.00 71 1014.5
20260905141759 32 158 3.2 3.2 0.00 0.00 0.00 73 1014.6
20260905141255 32 149 1.6 1.6 0.00 0.00 0.00 74 1014.4
20260905140751 32 144 0.0 1.6 0.00 0.00 0.00 74 1014.7
20260905140250 32 162 1.6 1.6 0.00 0.00 0.00 75 1014.5
20260905135749 31 151 0.0 1.6 0.00 0.00 0.00 75 1014.6
20260905135245 31 153 0.0 0.0 0.00 0.00 0.00 79 1014.7